TimePDT,TemperatureF,Dew PointF,Humidity,Sea Level PressureIn,VisibilityMPH,Wind Direction,Wind SpeedMPH,Gust SpeedMPH,PrecipitationIn,Events,Conditions,WindDirDegrees,DateUTC
12:00 AM,66.2,55.4,68,29.99,20.0,ESE,10.4,-,N/A,,Clear,120,2013-07-02 07:00:00
1:00 AM,64.4,55.4,73,30.00,20.0,ESE,15.0,-,N/A,,Clear,110,2013-07-02 08:00:00
2:00 AM,64.4,55.4,73,30.02,20.0,East,13.8,-,N/A,,Partly Cloudy,100,2013-07-02 09:00:00
3:00 AM,62.6,57.2,82,30.02,20.0,ESE,9.2,-,N/A,,Scattered Clouds,110,2013-07-02 10:00:00
4:00 AM,60.8,55.4,82,30.03,20.0,SSE,9.2,-,N/A,,Scattered Clouds,150,2013-07-02 11:00:00
5:00 AM,61,55,74,30.04,19,ESE,12.7,,,,Scattered Clouds,120,2013-07-02 12:00:00
5:00 AM,60.8,55.4,82,30.04,20.0,ESE,13.8,-,N/A,,Scattered Clouds,120,2013-07-02 12:00:00
6:00 AM,60.8,55.4,82,30.05,20.0,ESE,11.5,-,N/A,,Scattered Clouds,110,2013-07-02 13:00:00
7:00 AM,60.8,55.4,82,30.06,30.0,ESE,10.4,-,N/A,,Partly Cloudy,110,2013-07-02 14:00:00
8:00 AM,64.4,55.4,73,30.07,30.0,SE,11.5,-,N/A,,Scattered Clouds,130,2013-07-02 15:00:00
9:00 AM,66.2,57.2,73,30.08,30.0,SE,11.5,-,N/A,,Partly Cloudy,140,2013-07-02 16:00:00
10:00 AM,68.0,57.2,68,30.09,30.0,SE,8.1,-,N/A,,Partly Cloudy,130,2013-07-02 17:00:00
11:00 AM,71,60,59,30.09,28,SE,4.6,,,,Scattered Clouds,140,2013-07-02 18:00:00
11:00 AM,71.6,59.0,64,30.09,30.0,SE,4.6,-,N/A,,Partly Cloudy,130,2013-07-02 18:00:00
12:00 PM,69.8,60.8,73,30.09,30.0,WSW,10.4,-,N/A,,Partly Cloudy,250,2013-07-02 19:00:00
1:00 PM,69.8,62.6,78,30.09,30.0,WSW,10.4,-,N/A,,Partly Cloudy,240,2013-07-02 20:00:00
2:00 PM,71.6,62.6,73,30.08,30.0,WSW,11.5,-,N/A,,Partly Cloudy,250,2013-07-02 21:00:00
3:00 PM,71.6,62.6,73,30.08,30.0,WSW,8.1,-,N/A,,Partly Cloudy,250,2013-07-02 22:00:00
4:00 PM,73.4,64.4,73,30.07,30.0,SW,8.1,-,N/A,,Partly Cloudy,220,2013-07-02 23:00:00
5:00 PM,76,64,57,30.06,28,SW,8.1,,,,Scattered Clouds,220,2013-07-03 00:00:00
5:00 PM,77.0,64.4,65,30.05,30.0,SSW,8.1,-,N/A,,Partly Cloudy,210,2013-07-03 00:00:00
6:00 PM,77.0,60.8,57,30.04,30.0,SSW,8.1,-,N/A,,Clear,200,2013-07-03 01:00:00
7:00 PM,77.0,60.8,57,30.03,30.0,South,5.8,-,N/A,,Clear,190,2013-07-03 02:00:00
8:00 PM,75.2,59.0,57,30.01,30.0,SE,5.8,-,N/A,,Clear,140,2013-07-03 03:00:00
9:00 PM,69.8,57.2,64,30.01,30.0,East,9.2,-,N/A,,Clear,100,2013-07-03 04:00:00
10:00 PM,68.0,55.4,64,30.02,30.0,SE,8.1,-,N/A,,Clear,130,2013-07-03 05:00:00
11:00 PM,65,53,55,30.04,19,SE,9.2,,,,,140,2013-07-03 06:00:00
11:00 PM,64.4,51.8,64,30.04,20.0,SE,6.9,-,N/A,,Clear,130,2013-07-03 06:00:00